SAMSAT-IONOSPHERE (RS7*)

Last updated on Sun Jun 21 2026 00:03:20 GMT+0000 (Coordinated Universal Time)

1 61784U 24199BB 26171.39980315 .00041170 00000+0 55142-3 0 9998 2 61784 97.2937 47.3627 0005975 259.6998 100.3584 15.57868475138063
UTC large
Height (km)
Speed (km/s)
/
Latitude / Longitude
Inclination (degrees)
Orbital Period (minutes)
Azimuth
Elevation
Range (km)
Doppler Factor

Next 0 passes for location: London (51.5072 / 0.1276)

No passes found over London.
SAMSAT-IONOSPHERE (RS7*)